Location: Binningen
(47.7924°N, 8.7261°E)
Time: 20:32:55
(UTC+00:00)

Lacrosse 5 - Pass Details

Date: 17 May 2021
Orbit: 715 x 724 km, 57.0° (Epoch: 15 June)

Event Time Altitude Azimuth Distance (km) Brightness Sun altitude
Exits shadow 23:41:10 27° 254° (WSW) 1,356 3.1 -22.5°
Maximum altitude 23:43:52 64° 328° (NNW) 793 2.2 -22.5°
Drops below altitude 10° 23:48:55 10° 51° (NE) 2,208 5.0 -22.4°
Sets 23:51:20 0° 54° (NE) 3,132 5.8 -22.3°
